Regional Weather Roundup
Issued by NWS

Home | Current Version | Previous Version | Graphics & Text | Print | Product List | Glossary On
Versions: 1 2 3 4 5 6 7 8 9 10 11 12 13 14 15 16 17 18 19 20 21 22 23 24 25 26 27 28 29 30 31 32 33 34 35 36 37 38 39 40 41 42 43 44 45 46 47 48 49 50
000
ASUS43 KLOT 221210
RWRIL

ILLINOIS REGIONAL WEATHER ROUNDUP
NATIONAL WEATHER SERVICE CHICAGO/ROMEOVILLE IL
700 AM CDT TUE JUL 22 2014

NOTE: "FAIR" INDICATES FEW OR NO CLOUDS BELOW 12,000 FEET WITH NO
SIGNIFICANT WEATHER AND/OR OBSTRUCTIONS TO VISIBILITY.

* THESE STATIONS ARE NOT UNDER NWS QUALITY CONTROL. THEY ALSO MAY NOT
  REPORT WEATHER SUCH AS PRECIPITATION OR FOG.

ILZ001-002-007-009-015-016-024-221300-
NORTHWEST ILLINOIS

CITY           SKY/WX    TMP DP  RH WIND       PRES   REMARKS
MOLINE         SUNNY     74  67  78 S8        29.98F
6HR MIN TEMP:  73; 6HR MAX TEMP:  76;

STERLING*      SUNNY     72  66  83 S3        30.01F
SAVANNA*       SUNNY     73  66  79 S8        29.97F
$$

ILZ003-004-008-010-011-017-018-221300-
NORTH CENTRAL ILLINOIS

CITY           SKY/WX    TMP DP  RH WIND       PRES   REMARKS
ROCKFORD       MOSUNNY   71  65  81 S10       30.02F
6HR MIN TEMP:  70; 6HR MAX TEMP:  71;

FREEPORT*      MOSUNNY   71  67  87 S14       30.01F
ROCHELLE*      SUNNY     71  65  83 S7        30.03F
DE KALB*       SUNNY     65  64  93 S10       30.05F FOG
PERU*          SUNNY     69  64  85 S7        30.05S
$$

ILZ005-006-012>014-019>023-221300-
NORTHEAST ILLINOIS

CITY           SKY/WX    TMP DP  RH WIND       PRES   REMARKS
CHICAGO-OHARE  MOSUNNY   73  62  68 S9        30.05F
6HR MIN TEMP:  69; 6HR MAX TEMP:  73;

CHICAGO-MIDWAY MOSUNNY   73  65  75 S9        30.07R
6HR MIN TEMP:  72; 6HR MAX TEMP:  76;

AURORA         SUNNY     68  64  87 S8        30.05F FOG
6HR MIN TEMP:  66; 6HR MAX TEMP:  70;

LANSING*       SUNNY     68  64  86 S5        30.08R FOG
JOLIET*        SUNNY     69  64  83 S3        30.08F
WAUKEGAN       SUNNY     72  64  76 S13       30.03S
6HR MIN TEMP:  67; 6HR MAX TEMP:  72;

DUPAGE AIRPORT SUNNY     70  64  81 S12       30.04F
6HR MIN TEMP:  67; 6HR MAX TEMP:  70;

KANKAKEE*      SUNNY     67  65  91 S5        30.10R
WHEELING       SUNNY     74  64  71 S10       30.06F
6HR MIN TEMP:  71; 6HR MAX TEMP:  75;

MORRIS*        SUNNY     67  66  97 S3        30.06F FOG
ROMEOVILLE*    SUNNY     69  66  89 S6        30.07S
NORTHERLY ISL    N/A     73  62  68 S10         N/A
$$

LMZ740>746-221300-
SOUTHERN LAKE MICHIGAN

STATION/POSITION SKY/WX   TEMP    WIND        PRES    VSBY  WAVE
                          AIR SEA DIR/SP/G                  HT/PER
                          (F)     (DEG/KT/KT) (MB)    (MI)  (FT/S)
SOUTHERN BUOY              70 68  180/ 12/ 14 1017.4S         1/ 3
WAUKEGAN HARBOR            68     180/ 11/ 12 1018.3S
HARRISON CRIB              72     200/ 12/ 14   N/A
BURNHAM HARBOR             73     220/  8/  9   N/A
CALUMET HARBOR             71     200/  5/  7 1017.2R
BURNS HARBOR               69     190/  8/ 10 1018.6S
MICHIGAN CITY              71     170/ 10/ 14   N/A
$$

ILZ025>027-034>036-040-047-049-050-058-095>099-221300-
WEST-CENTRAL ILLINOIS

CITY           SKY/WX    TMP DP  RH WIND       PRES   REMARKS
QUINCY         MOSUNNY   72  66  81 S9        30.06R
GALESBURG*     SUNNY     70  67  91 S7        30.03S
MACOMB*        SUNNY     70  68  92 S8        30.06R
JACKSONVILLE*  SUNNY     72  67  86 S6        30.09R
PITTSFIELD*    SUNNY     71  67  87 S3        30.08S FOG
$$

ILZ028>032-037-038-041>044-048-051>054-059>061-221300-
CENTRAL ILLINOIS

CITY           SKY/WX    TMP DP  RH WIND       PRES   REMARKS
PONTIAC        SUNNY     68  66  94 S6        30.08R FOG
BLOOMINGTON    SUNNY     65  62  90 S7        30.11R
DECATUR        SUNNY     69  64  84 S3        30.10S
PEORIA         SUNNY     71  65  81 S6        30.06S
6HR MIN TEMP:  69; 6HR MAX TEMP:  74;

LACON*         SUNNY     69  64  83 S5        30.04S
LINCOLN*       SUNNY     67  64  90 CALM      30.06R FOG
SPRINGFIELD    SUNNY     73  66  78 SW6       30.08S
6HR MIN TEMP:  70; 6HR MAX TEMP:  73;

TAYLORVILLE    SUNNY     66  64  94 S6        30.09S
$$

ILZ033-039-045-046-055>057-062-063-221300-
EAST-CENTRAL ILLINOIS

CITY           SKY/WX    TMP DP  RH WIND       PRES   REMARKS
CHAMPAIGN      SUNNY     67  64  90 S6        30.11S
RANTOUL*       SUNNY     66  62  85 CALM      30.11S FOG
MATTOON        SUNNY     68  64  87 S5        30.10S FOG
PARIS*         SUNNY     64  63  98 CALM      30.11F FOG
$$

ILZ079-100>102-221300-
SOUTHWEST ILLINOIS

CITY           SKY/WX    TMP DP  RH WIND       PRES   REMARKS
BELLEVILLE     SUNNY     65  65 100 CALM      30.09S FOG
CAHOKIA*       SUNNY     68  65  90 S5        30.09S
SPARTA*        SUNNY     64  63  94 CALM      30.11R FOG
$$

ILZ064>066-069>071-074>076-080>082-084>086-088>090-092>094-221300-
SOUTH-CENTRAL ILLINOIS

CITY           SKY/WX    TMP DP  RH WIND       PRES   REMARKS
CARBONDALE     SUNNY     66  64  93 CALM      30.11R FOG
6HR MIN TEMP:  63; 6HR MAX TEMP:  66;

CAIRO*         SUNNY     68  65  93 CALM      30.10S FOG
MARION         SUNNY     66  66 100 CALM      30.12R
MT. VERNON     SUNNY     64  61  88 CALM      30.12S
CENTRALIA*     SUNNY     70  62  75 CALM      30.10F HAZE
SALEM*         SUNNY     67  66  96 CALM      30.11R FOG
METROPOLIS*    SUNNY     67  66  95 CALM      30.10S FOG
$$

ILZ067-068-072-073-078-083-087-091-221300-
SOUTHEAST ILLINOIS

CITY           SKY/WX    TMP DP  RH WIND       PRES   REMARKS
FLORA*         SUNNY     65  65  98 CALM      30.11S FOG
FAIRFIELD*     SUNNY     66  66 100 CALM      30.11R FOG
HARRISBURG*    FOG       64  64 100 CALM      30.12R VSB<1/4
ROBINSON*      FOG       65  64  99 CALM      30.12R VSB<1/4
CARMI*         SUNNY     66  66  99 CALM      30.10R FOG
$$

ABBREVIATIONS USED IN REMARKS
   TC - TEMPERATURE IN CELSIUS
  WCI - WIND CHILL INDEX
   HX - HEAT INDEX
  VSB - VISIBILITY
$$



USA.gov is the U.S. government's official web portal to all federal, state and local government web resources and services.